Latest Coastal Weather Observations for Gannett Cay

IDQ60701

Issued at 12:02 pm EST Wednesday 16 October 2019 (issued every 10 minutes, with the page automatically refreshed every 10 minutes)

About coastal observations | Map of coastal stations | Coastal observations for QLD | Marine services | Other Formats
Station Details ID: 200831 Name: GANNET CAY Lat: -21.98 Lon: 152.47 Height: 2.3 m
Data from the previous 72 hours. | See also: Recent months for locations in Queensland
Date/Time
EST
Wind Sea
Height
m
Swell Vis
km
Cloud Weather Temp
°C
Press
hPa
Rain since
9am
mm
Dir  Spd
kts
Gust
kts
Height
m
Period
s
Dir
16/12:00pm - - - - - - - - - - 23.5 1016.7 -
16/11:30am - - - - - - - - - - 23.5 1016.8 -
16/11:00am - - - - - - - - - - 23.5 1017.2 -
16/10:30am - - - - - - - - - - 23.5 1017.6 -
16/10:00am - - - - - - - - - - 23.5 1017.9 -
16/09:30am - - - - - - - - - - 23.5 1017.9 -
16/09:00am - - - - - - - - - - 23.5 1017.7 -
16/08:30am - - - - - - - - - - 23.4 1017.5 -
16/08:00am - - - - - - - - - - 23.3 1017.3 -
16/07:30am - - - - - - - - - - 23.2 1016.9 -
16/07:00am - - - - - - - - - - 23.3 1016.6 -
16/06:30am - - - - - - - - - - 23.1 1016.2 -
16/06:00am - - - - - - - - - - 23.1 1015.7 -
16/05:30am - - - - - - - - - - 23.0 1015.2 -
16/05:00am - - - - - - - - - - 23.0 1014.9 -
16/04:30am - - - - - - - - - - 23.0 1014.5 -
16/04:00am - - - - - - - - - - 23.0 1014.0 -
16/03:30am - - - - - - - - - - 22.9 1013.5 -
16/03:00am - - - - - - - - - - 22.9 1013.1 -
16/02:30am - - - - - - - - - - 22.9 1013.2 -
16/02:00am - - - - - - - - - - 22.9 1013.0 -
16/01:30am - - - - - - - - - - 22.9 1013.0 -
16/01:00am - - - - - - - - - - 22.9 1013.3 -
16/12:30am - - - - - - - - - - 22.9 1013.5 -
16/12:00am - - - - - - - - - - 22.9 1014.1 -
 
Date/Time
EST
Wind Sea
Height
m
Swell Vis
km
Cloud Weather Temp
°C
Press
hPa
Rain since
9am
mm
Dir  Spd
kts
Gust
kts
Height
m
Period
s
Dir
15/11:30pm - - - - - - - - - - 22.9 1014.5 -
15/11:00pm - - - - - - - - - - 22.9 1014.8 -
15/10:30pm - - - - - - - - - - 23.0 1014.7 -
15/10:00pm - - - - - - - - - - 23.0 1014.6 -
15/09:30pm - - - - - - - - - - 23.0 1014.6 -
15/09:00pm - - - - - - - - - - 23.1 1014.4 -
15/08:30pm - - - - - - - - - - 23.1 1014.2 -
15/08:00pm - - - - - - - - - - 23.1 1014.1 -
15/07:30pm - - - - - - - - - - 23.1 1014.0 -
15/07:00pm - - - - - - - - - - 23.1 1013.7 -
15/06:30pm - - - - - - - - - - 23.2 1013.7 -
15/06:00pm - - - - - - - - - - 23.2 1013.5 -
15/05:30pm - - - - - - - - - - 23.3 1013.2 -
15/05:00pm - - - - - - - - - - 23.3 1013.0 -
15/04:30pm - - - - - - - - - - 23.3 1012.6 -
15/04:00pm - - - - - - - - - - 23.3 1012.0 -
15/03:30pm - - - - - - - - - - 23.3 1012.3 -
15/03:00pm - - - - - - - - - - 23.3 1012.3 -
15/02:30pm - - - - - - - - - - 23.2 1012.6 -
15/02:00pm - - - - - - - - - - 23.2 1013.0 -
15/01:30pm - - - - - - - - - - 23.2 1013.5 -
15/01:00pm - - - - - - - - - - 23.1 1013.8 -
15/12:30pm - - - - - - - - - - 23.1 1014.4 -
15/12:00pm - - - - - - - - - - 23.0 1014.8 -
15/11:30am - - - - - - - - - - 23.1 1015.4 -
15/11:00am - - - - - - - - - - 23.0 1015.8 -
15/10:30am - - - - - - - - - - 22.9 1016.1 -
15/10:00am - - - - - - - - - - 22.9 1016.3 -
15/09:30am - - - - - - - - - - 22.9 1016.7 -
15/09:00am - - - - - - - - - - 22.8 1016.7 -
15/08:30am - - - - - - - - - - 22.8 1016.6 -
15/08:00am - - - - - - - - - - 22.7 1016.6 -
15/07:30am - - - - - - - - - - 22.6 1016.3 -
15/07:00am - - - - - - - - - - 22.6 1015.9 -
15/06:30am - - - - - - - - - - 22.5 1015.7 -
15/06:00am - - - - - - - - - - 22.5 1015.4 -
15/05:30am - - - - - - - - - - 22.3 1014.9 -
15/05:00am - - - - - - - - - - 22.2 1014.6 -
15/04:30am - - - - - - - - - - 22.1 1014.6 -
15/04:00am - - - - - - - - - - 22.1 1014.4 -
15/03:30am - - - - - - - - - - 22.2 1014.3 -
15/03:00am - - - - - - - - - - 22.2 1014.2 -
15/02:30am - - - - - - - - - - 22.2 1014.5 -
15/02:00am - - - - - - - - - - 22.1 1014.7 -
15/01:30am - - - - - - - - - - 22.2 1015.3 -
15/01:00am - - - - - - - - - - 22.2 1015.8 -
15/12:30am - - - - - - - - - - 22.3 1016.3 -
15/12:00am - - - - - - - - - - 22.3 1016.6 -
 
Date/Time
EST
Wind Sea
Height
m
Swell Vis
km
Cloud Weather Temp
°C
Press
hPa
Rain since
9am
mm
Dir  Spd
kts
Gust
kts
Height
m
Period
s
Dir
14/11:30pm - - - - - - - - - - 22.3 1017.1 -
14/11:00pm - - - - - - - - - - 22.3 1017.3 -
14/10:30pm - - - - - - - - - - 22.4 1017.5 -
14/10:00pm - - - - - - - - - - 22.4 1017.5 -
14/09:30pm - - - - - - - - - - 22.5 1017.4 -
14/09:00pm - - - - - - - - - - 22.5 1017.4 -
14/08:30pm - - - - - - - - - - 22.5 1017.2 -
14/08:00pm - - - - - - - - - - 22.5 1017.2 -
14/07:30pm - - - - - - - - - - 22.5 1016.8 -
14/07:00pm - - - - - - - - - - 22.5 1016.7 -
14/06:30pm - - - - - - - - - - 22.5 1016.4 -
14/06:00pm - - - - - - - - - - 22.5 1016.2 -
14/05:30pm - - - - - - - - - - 22.4 1015.9 -
14/05:00pm - - - - - - - - - - 22.5 1015.7 -
14/04:30pm - - - - - - - - - - 22.6 1015.4 -
14/04:00pm - - - - - - - - - - 22.7 1015.4 -
14/03:30pm - - - - - - - - - - 22.9 1015.4 -
14/03:00pm - - - - - - - - - - 23.3 1015.6 -
14/02:30pm - - - - - - - - - - 23.5 1015.7 -
14/02:00pm - - - - - - - - - - 23.0 1016.1 -
14/01:30pm - - - - - - - - - - 23.6 1016.5 -
14/01:00pm - - - - - - - - - - 23.6 1016.8 -
14/12:30pm - - - - - - - - - - 22.8 1017.2 -
14/12:00pm - - - - - - - - - - 23.0 1017.6 -
14/11:30am - - - - - - - - - - 23.0 1018.0 -
14/11:00am - - - - - - - - - - 23.2 1018.2 -
14/10:30am - - - - - - - - - - 23.0 1018.4 -
14/10:00am - - - - - - - - - - 22.8 1018.8 -
14/09:30am - - - - - - - - - - 22.7 1019.0 -
14/09:00am - - - - - - - - - - 22.7 1019.0 -
14/08:30am - - - - - - - - - - 22.5 1018.9 -
14/08:00am - - - - - - - - - - 22.5 1018.8 -
14/07:30am - - - - - - - - - - 22.5 1018.7 -
14/07:00am - - - - - - - - - - 22.6 1018.5 -
14/06:30am - - - - - - - - - - 22.4 1018.2 -
14/06:00am - - - - - - - - - - 22.2 1017.9 -
14/05:30am - - - - - - - - - - 22.1 1017.7 -
14/05:00am - - - - - - - - - - 22.0 1017.5 -
14/04:30am - - - - - - - - - - 22.0 1017.2 -
14/04:00am - - - - - - - - - - 22.0 1017.0 -
14/03:30am - - - - - - - - - - 22.2 1016.8 -
14/03:00am - - - - - - - - - - 22.3 1016.8 -
14/02:30am - - - - - - - - - - 22.4 1016.8 -
14/02:00am - - - - - - - - - - 22.5 1017.0 -
14/01:30am - - - - - - - - - - 22.5 1017.1 -
14/01:00am - - - - - - - - - - 22.6 1017.4 -
14/12:30am - - - - - - - - - - 22.7 1017.7 -
14/12:00am - - - - - - - - - - 22.8 1017.9 -
 
Date/Time
EST
Wind Sea
Height
m
Swell Vis
km
Cloud Weather Temp
°C
Press
hPa
Rain since
9am
mm
Dir  Spd
kts
Gust
kts
Height
m
Period
s
Dir
13/11:30pm - - - - - - - - - - 22.9 1018.1 -
13/11:00pm - - - - - - - - - - 22.9 1018.1 -
13/10:30pm - - - - - - - - - - 23.0 1018.0 -
13/10:00pm - - - - - - - - - - 22.7 1017.8 -
13/09:30pm - - - - - - - - - - 22.6 1017.7 -
13/09:00pm - - - - - - - - - - 22.5 1017.4 -
13/08:30pm - - - - - - - - - - 22.5 1017.1 -
13/08:00pm - - - - - - - - - - 22.5 1016.7 -
13/07:30pm - - - - - - - - - - 22.4 1016.3 -
13/07:00pm - - - - - - - - - - 22.4 1015.8 -
13/06:30pm - - - - - - - - - - 22.4 1015.5 -
13/06:00pm - - - - - - - - - - 22.3 1015.3 -
13/05:30pm - - - - - - - - - - 22.8 1015.1 -
13/05:00pm - - - - - - - - - - 23.1 1014.8 -
13/04:30pm - - - - - - - - - - 23.2 1014.6 -
13/04:00pm - - - - - - - - - - 23.4 1014.5 -
13/03:30pm - - - - - - - - - - 23.7 1014.5 -
13/03:00pm - - - - - - - - - - 23.6 1014.7 -
13/02:30pm - - - - - - - - - - 24.3 1015.1 -
13/02:00pm - - - - - - - - - - 23.8 1015.3 -
13/01:30pm - - - - - - - - - - 23.5 1015.4 -
13/01:00pm - - - - - - - - - - 23.3 1015.6 -
13/12:30pm - - - - - - - - - - 23.2 1016.0 -

Other formats

Comma delimited format used in spreadsheet applications
http://www.bom.gov.au/fwo/IDQ60701/IDQ60701.94379.axf

JavaScript Object Notation format (JSON) in row-major order
http://www.bom.gov.au/fwo/IDQ60701/IDQ60701.94379.json

Data quality

Most of these data are generated automatically and are frequently updated. Quality checks on data are not normally performed. It is possible for incorrect values to appear. Refer to information at About Latest Weather Observations and please check the disclaimer before using these data.